Time,TemperatureF,DewpointF,PressureIn,WindDirection,WindDirectionDegrees,WindSpeedMPH,WindSpeedGustMPH,Humidity,HourlyPrecipIn,Conditions,Clouds,dailyrainin,SoftwareType,DateUTC
2013-03-25 13:10:00,32.8,19.6,29.69,SW,215,4.0,8.0,58,0.00,,,0.02,Wunderground v.1.15,2013-03-25 17:10:00,
2013-03-25 13:15:00,32.5,20.1,29.70,WSW,243,5.0,8.0,60,0.00,,,0.02,Wunderground v.1.15,2013-03-25 17:15:00,
2013-03-25 13:25:00,33.4,21.8,29.70,West,271,4.0,8.0,62,0.00,,,0.02,Wunderground v.1.15,2013-03-25 17:25:00,
2013-03-25 13:30:00,33.7,20.9,29.69,SE,127,4.0,8.0,59,0.00,,,0.02,Wunderground v.1.15,2013-03-25 17:30:00,
2013-03-25 13:35:00,34.1,20.9,29.69,SE,133,4.0,8.0,58,0.00,,,0.02,Wunderground v.1.15,2013-03-25 17:35:00,
2013-03-25 13:40:00,34.3,20.6,29.69,South,174,4.0,8.0,57,0.00,,,0.02,Wunderground v.1.15,2013-03-25 17:40:00,
2013-03-25 13:45:00,34.3,19.8,29.70,SSW,208,4.0,8.0,55,0.00,,,0.02,Wunderground v.1.15,2013-03-25 17:45:00,
2013-03-25 13:50:00,33.9,19.4,29.69,SSE,149,4.0,8.0,55,0.00,,,0.02,Wunderground v.1.15,2013-03-25 17:50:00,
2013-03-25 13:55:00,33.1,19.1,29.70,SW,228,5.0,8.0,56,0.00,,,0.02,Wunderground v.1.15,2013-03-25 17:55:00,
2013-03-25 14:00:00,32.6,19.8,29.70,WSW,245,5.0,8.0,59,0.00,,,0.02,Wunderground v.1.15,2013-03-25 18:00:00,
2013-03-25 14:05:00,32.4,20.0,29.70,WSW,238,4.0,8.0,60,0.00,,,0.02,Wunderground v.1.15,2013-03-25 18:05:00,
2013-03-25 14:10:00,32.5,20.1,29.70,SSW,212,4.0,4.0,60,0.00,,,0.02,Wunderground v.1.15,2013-03-25 18:10:00,
2013-03-25 14:15:00,32.4,19.3,29.70,WSW,242,4.0,6.0,58,0.00,,,0.02,Wunderground v.1.15,2013-03-25 18:15:00,
2013-03-25 14:20:00,32.3,19.2,29.70,SW,214,4.0,4.0,58,0.00,,,0.02,Wunderground v.1.15,2013-03-25 18:20:00,
2013-03-25 14:30:00,32.1,19.4,29.70,SSW,208,4.0,5.0,59,0.00,,,0.02,Wunderground v.1.15,2013-03-25 18:30:00,
2013-03-25 14:35:00,32.2,19.5,29.70,WSW,256,3.0,21.0,59,0.00,,,0.02,Wunderground v.1.15,2013-03-25 18:35:00,
2013-03-25 14:40:00,32.4,18.8,29.69,SSW,203,3.0,21.0,57,0.00,,,0.02,Wunderground v.1.15,2013-03-25 18:40:00,
2013-03-25 14:45:00,32.6,19.0,29.69,SW,236,3.0,21.0,57,0.00,,,0.02,Wunderground v.1.15,2013-03-25 18:45:00,
2013-03-25 14:55:00,32.8,19.6,29.69,SSW,203,3.0,21.0,58,0.00,,,0.02,Wunderground v.1.15,2013-03-25 18:55:00,
2013-03-25 15:00:00,33.0,19.0,29.69,SSW,207,3.0,3.0,56,0.00,,,0.02,Wunderground v.1.15,2013-03-25 19:00:00,
2013-03-25 15:05:00,33.1,19.5,29.69,SSW,211,3.0,8.0,57,0.00,,,0.02,Wunderground v.1.15,2013-03-25 19:05:00,
2013-03-25 15:10:00,33.1,19.5,29.69,West,269,4.0,21.0,57,0.00,,,0.02,Wunderground v.1.15,2013-03-25 19:10:00,
2013-03-25 15:20:00,33.5,19.5,29.68,WSW,239,4.0,21.0,56,0.00,,,0.02,Wunderground v.1.15,2013-03-25 19:20:00,
2013-03-25 15:25:00,33.5,20.3,29.69,WSW,257,4.0,21.0,58,0.00,,,0.02,Wunderground v.1.15,2013-03-25 19:25:00,
2013-03-25 15:30:00,33.5,20.3,29.69,NW,318,3.0,3.0,58,0.00,,,0.02,Wunderground v.1.15,2013-03-25 19:30:00,
2013-03-25 15:35:00,33.6,20.8,29.69,SW,224,3.0,5.0,59,0.00,,,0.02,Wunderground v.1.15,2013-03-25 19:35:00,
2013-03-25 15:40:00,33.5,20.7,29.69,SSW,194,4.0,4.0,59,0.00,,,0.02,Wunderground v.1.15,2013-03-25 19:40:00,
2013-03-25 15:45:00,33.4,20.6,29.70,SSW,205,4.0,21.0,59,0.00,,,0.02,Wunderground v.1.15,2013-03-25 19:45:00,
2013-03-25 15:50:00,33.1,20.7,29.70,WSW,239,3.0,21.0,60,0.00,,,0.02,Wunderground v.1.15,2013-03-25 19:50:00,
2013-03-25 15:55:00,32.9,20.5,29.69,SSW,207,3.0,21.0,60,0.00,,,0.02,Wunderground v.1.15,2013-03-25 19:55:00,
2013-03-25 16:00:00,33.4,19.8,29.69,WSW,240,5.0,5.0,57,0.00,,,0.02,Wunderground v.1.15,2013-03-25 20:00:00,
2013-03-25 16:05:00,33.8,20.2,29.70,SW,229,6.0,6.0,57,0.00,,,0.02,Wunderground v.1.15,2013-03-25 20:05:00,
2013-03-25 16:10:00,33.5,19.5,29.69,SW,233,6.0,6.0,56,0.00,,,0.02,Wunderground v.1.15,2013-03-25 20:10:00,
2013-03-25 16:15:00,33.0,20.6,29.70,WSW,239,5.0,21.0,60,0.00,,,0.02,Wunderground v.1.15,2013-03-25 20:15:00,
2013-03-25 16:20:00,32.9,20.5,29.70,SSW,211,5.0,5.0,60,0.00,,,0.02,Wunderground v.1.15,2013-03-25 20:20:00,
2013-03-25 16:30:00,33.2,20.8,29.71,SSW,197,4.0,4.0,60,0.00,,,0.02,Wunderground v.1.15,2013-03-25 20:30:00,
2013-03-25 16:35:00,33.9,21.1,29.71,WSW,253,5.0,8.0,59,0.00,,,0.02,Wunderground v.1.15,2013-03-25 20:35:00,
2013-03-25 16:45:00,33.6,20.0,29.71,WSW,243,7.0,7.0,57,0.00,,,0.02,Wunderground v.1.15,2013-03-25 20:45:00,
2013-03-25 16:50:00,33.5,20.7,29.72,SW,224,6.0,21.0,59,0.00,,,0.02,Wunderground v.1.15,2013-03-25 20:50:00,
2013-03-25 16:55:00,33.3,20.5,29.72,WSW,256,5.0,21.0,59,0.00,,,0.02,Wunderground v.1.15,2013-03-25 20:55:00,
2013-03-25 17:05:00,33.2,20.4,29.72,NW,312,6.0,21.0,59,0.00,,,0.02,Wunderground v.1.15,2013-03-25 21:05:00,
2013-03-25 17:10:00,32.9,20.5,29.72,WSW,247,5.0,21.0,60,0.00,,,0.02,Wunderground v.1.15,2013-03-25 21:10:00,
2013-03-25 17:15:00,32.7,21.1,29.72,SW,228,5.0,21.0,62,0.00,,,0.02,Wunderground v.1.15,2013-03-25 21:15:00,
2013-03-25 17:20:00,32.3,20.7,29.73,North,350,6.0,6.0,62,0.00,,,0.02,Wunderground v.1.15,2013-03-25 21:20:00,
2013-03-25 17:25:00,32.2,22.1,29.73,SE,143,5.0,21.0,66,0.00,,,0.02,Wunderground v.1.15,2013-03-25 21:25:00,
2013-03-25 17:30:00,32.4,21.6,29.73,SW,228,4.0,4.0,64,0.00,,,0.02,Wunderground v.1.15,2013-03-25 21:30:00,
2013-03-25 17:40:00,32.9,21.3,29.74,NW,324,4.0,21.0,62,0.00,,,0.02,Wunderground v.1.15,2013-03-25 21:40:00,
2013-03-25 17:50:00,32.1,21.7,29.75,WNW,284,5.0,21.0,65,0.00,,,0.02,Wunderground v.1.15,2013-03-25 21:50:00,
2013-03-25 18:00:00,30.9,23.3,29.77,NW,326,5.0,21.0,73,0.00,,,0.02,Wunderground v.1.15,2013-03-25 22:00:00,
2013-03-25 18:05:00,30.8,22.5,29.76,SE,143,5.0,21.0,71,0.00,,,0.02,Wunderground v.1.15,2013-03-25 22:05:00,
2013-03-25 18:10:00,31.0,22.4,29.76,SW,231,4.0,21.0,70,0.00,,,0.02,Wunderground v.1.15,2013-03-25 22:10:00,
2013-03-25 18:15:00,31.0,21.7,29.76,WSW,245,4.0,21.0,68,0.00,,,0.02,Wunderground v.1.15,2013-03-25 22:15:00,
2013-03-25 18:20:00,31.1,21.8,29.77,SW,235,5.0,21.0,68,0.00,,,0.02,Wunderground v.1.15,2013-03-25 22:20:00,
2013-03-25 18:25:00,31.0,21.7,29.77,WSW,256,4.0,21.0,68,0.00,,,0.02,Wunderground v.1.15,2013-03-25 22:25:00,
2013-03-25 18:30:00,31.0,21.7,29.78,WSW,243,4.0,4.0,68,0.00,,,0.02,Wunderground v.1.15,2013-03-25 22:30:00,
2013-03-25 18:35:00,30.8,21.8,29.78,WNW,286,4.0,21.0,69,0.00,,,0.02,Wunderground v.1.15,2013-03-25 22:35:00,
2013-03-25 18:45:00,30.8,21.1,29.78,SW,219,4.0,21.0,67,0.00,,,0.02,Wunderground v.1.15,2013-03-25 22:45:00,
2013-03-25 18:50:00,30.8,21.1,29.78,SW,235,5.0,21.0,67,0.00,,,0.02,Wunderground v.1.15,2013-03-25 22:50:00,
2013-03-25 18:55:00,30.6,21.3,29.79,WSW,248,5.0,21.0,68,0.00,,,0.02,Wunderground v.1.15,2013-03-25 22:55:00,
2013-03-25 19:00:00,30.4,21.4,29.79,SW,228,4.0,21.0,69,0.00,,,0.02,Wunderground v.1.15,2013-03-25 23:00:00,
2013-03-25 19:05:00,30.0,21.7,29.79,SW,232,4.0,21.0,71,0.00,,,0.02,Wunderground v.1.15,2013-03-25 23:05:00,
2013-03-25 19:10:00,29.7,21.8,29.80,SW,236,4.0,4.0,72,0.00,,,0.02,Wunderground v.1.15,2013-03-25 23:10:00,
2013-03-25 19:15:00,29.6,22.3,29.80,WNW,285,4.0,21.0,74,0.00,,,0.02,Wunderground v.1.15,2013-03-25 23:15:00,
2013-03-25 19:20:00,29.4,21.2,29.80,WSW,255,4.0,21.0,71,0.00,,,0.02,Wunderground v.1.15,2013-03-25 23:20:00,
2013-03-25 19:25:00,29.4,21.2,29.80,SW,228,5.0,21.0,71,0.00,,,0.02,Wunderground v.1.15,2013-03-25 23:25:00,
2013-03-25 19:30:00,29.4,20.8,29.80,WSW,248,5.0,5.0,70,0.00,,,0.02,Wunderground v.1.15,2013-03-25 23:30:00,
2013-03-25 19:35:00,29.2,21.3,29.80,WSW,257,5.0,21.0,72,0.00,,,0.02,Wunderground v.1.15,2013-03-25 23:35:00,
2013-03-25 19:40:00,28.9,21.0,29.80,SW,231,5.0,21.0,72,0.00,,,0.02,Wunderground v.1.15,2013-03-25 23:40:00,
2013-03-25 19:45:00,28.8,21.6,29.81,SW,228,4.0,21.0,74,0.00,,,0.02,Wunderground v.1.15,2013-03-25 23:45:00,
2013-03-25 19:50:00,28.5,21.9,29.81,West,273,4.0,4.0,76,0.00,,,0.02,Wunderground v.1.15,2013-03-25 23:50:00,
2013-03-25 19:55:00,28.3,22.0,29.81,SW,225,4.0,21.0,77,0.00,,,0.02,Wunderground v.1.15,2013-03-25 23:55:00,
2013-03-25 20:00:00,28.1,22.1,29.81,SW,236,4.0,4.0,78,0.00,,,0.02,Wunderground v.1.15,2013-03-26 00:00:00,
2013-03-25 20:05:00,28.0,22.0,29.81,WSW,240,3.0,21.0,78,0.00,,,0.02,Wunderground v.1.15,2013-03-26 00:05:00,
2013-03-25 20:10:00,27.9,21.9,29.81,WNW,282,3.0,3.0,78,0.00,,,0.02,Wunderground v.1.15,2013-03-26 00:10:00,
2013-03-25 20:20:00,27.7,22.0,29.82,SW,233,2.0,21.0,79,0.00,,,0.02,Wunderground v.1.15,2013-03-26 00:20:00,
2013-03-25 20:25:00,27.7,22.0,29.82,SW,232,3.0,21.0,79,0.00,,,0.02,Wunderground v.1.15,2013-03-26 00:25:00,
2013-03-25 20:35:00,27.6,21.9,29.83,SSE,150,2.0,21.0,79,0.00,,,0.02,Wunderground v.1.15,2013-03-26 00:35:00,
2013-03-25 20:40:00,27.5,21.8,29.84,SSE,163,2.0,2.0,79,0.00,,,0.02,Wunderground v.1.15,2013-03-26 00:40:00,
2013-03-25 20:50:00,27.4,22.3,29.85,SW,224,2.0,21.0,81,0.00,,,0.02,Wunderground v.1.15,2013-03-26 00:50:00,
2013-03-25 20:55:00,27.4,22.3,29.84,West,277,2.0,21.0,81,0.00,,,0.02,Wunderground v.1.15,2013-03-26 00:55:00,
2013-03-25 21:00:00,27.4,22.3,29.85,SW,219,2.0,21.0,81,0.00,,,0.02,Wunderground v.1.15,2013-03-26 01:00:00,
2013-03-25 21:05:00,27.4,22.3,29.85,SW,221,3.0,21.0,81,0.00,,,0.02,Wunderground v.1.15,2013-03-26 01:05:00,
2013-03-25 21:10:00,27.4,22.6,29.86,SW,236,3.0,21.0,82,0.00,,,0.02,Wunderground v.1.15,2013-03-26 01:10:00,
2013-03-25 21:15:00,27.4,22.6,29.85,SSW,208,4.0,21.0,82,0.00,,,0.02,Wunderground v.1.15,2013-03-26 01:15:00,
2013-03-25 21:20:00,27.4,22.3,29.85,WSW,243,4.0,21.0,81,0.00,,,0.02,Wunderground v.1.15,2013-03-26 01:20:00,
2013-03-25 21:25:00,27.4,22.3,29.85,SW,228,4.0,21.0,81,0.00,,,0.02,Wunderground v.1.15,2013-03-26 01:25:00,
2013-03-25 21:35:00,27.5,21.8,29.85,SSW,205,4.0,21.0,79,0.00,,,0.02,Wunderground v.1.15,2013-03-26 01:35:00,
2013-03-25 21:40:00,27.6,21.9,29.85,WSW,242,5.0,21.0,79,0.00,,,0.02,Wunderground v.1.15,2013-03-26 01:40:00,
2013-03-25 21:45:00,27.6,21.6,29.86,SSW,195,5.0,21.0,78,0.00,,,0.02,Wunderground v.1.15,2013-03-26 01:45:00,
2013-03-25 21:50:00,27.7,21.7,29.86,WSW,253,4.0,21.0,78,0.00,,,0.02,Wunderground v.1.15,2013-03-26 01:50:00,
2013-03-25 21:55:00,27.6,21.9,29.86,WSW,250,4.0,21.0,79,0.00,,,0.02,Wunderground v.1.15,2013-03-26 01:55:00,
2013-03-25 22:00:00,27.5,21.8,29.86,SW,231,5.0,21.0,79,0.00,,,0.02,Wunderground v.1.15,2013-03-26 02:00:00,
2013-03-25 22:05:00,27.5,21.8,29.86,SW,214,5.0,21.0,79,0.00,,,0.02,Wunderground v.1.15,2013-03-26 02:05:00,
2013-03-25 22:10:00,27.4,21.7,29.87,West,263,5.0,21.0,79,0.00,,,0.02,Wunderground v.1.15,2013-03-26 02:10:00,
2013-03-25 22:15:00,27.4,22.0,29.86,West,274,5.0,21.0,80,0.00,,,0.02,Wunderground v.1.15,2013-03-26 02:15:00,
2013-03-25 22:20:00,27.4,21.7,29.87,SW,228,4.0,21.0,79,0.00,,,0.02,Wunderground v.1.15,2013-03-26 02:20:00,
2013-03-25 22:25:00,27.4,21.7,29.87,SW,236,5.0,21.0,79,0.00,,,0.02,Wunderground v.1.15,2013-03-26 02:25:00,
2013-03-25 22:30:00,27.4,21.4,29.87,WSW,253,5.0,21.0,78,0.00,,,0.02,Wunderground v.1.15,2013-03-26 02:30:00,
2013-03-25 22:35:00,27.5,21.5,29.87,SW,235,5.0,21.0,78,0.00,,,0.02,Wunderground v.1.15,2013-03-26 02:35:00,
2013-03-25 22:40:00,27.5,21.5,29.87,SW,231,5.0,5.0,78,0.00,,,0.02,Wunderground v.1.15,2013-03-26 02:40:00,
2013-03-25 22:45:00,27.5,21.5,29.88,WSW,253,5.0,6.0,78,0.00,,,0.02,Wunderground v.1.15,2013-03-26 02:45:00,
2013-03-25 22:50:00,27.4,21.7,29.88,WSW,246,5.0,5.0,79,0.00,,,0.02,Wunderground v.1.15,2013-03-26 02:50:00,
2013-03-25 22:55:00,27.3,21.9,29.89,WSW,256,5.0,7.0,80,0.00,,,0.02,Wunderground v.1.15,2013-03-26 02:55:00,
2013-03-25 23:00:00,27.2,22.1,29.89,WSW,252,5.0,21.0,81,0.00,,,0.02,Wunderground v.1.15,2013-03-26 03:00:00,
2013-03-25 23:05:00,27.1,22.3,29.90,WSW,246,5.0,21.0,82,0.00,,,0.02,Wunderground v.1.15,2013-03-26 03:05:00,
2013-03-25 23:10:00,26.9,22.4,29.90,West,259,5.0,5.0,83,0.00,,,0.02,Wunderground v.1.15,2013-03-26 03:10:00,
2013-03-25 23:15:00,26.8,22.3,29.90,WSW,239,5.0,21.0,83,0.00,,,0.02,Wunderground v.1.15,2013-03-26 03:15:00,
2013-03-25 23:20:00,26.8,22.6,29.90,SSW,205,5.0,5.0,84,0.00,,,0.02,Wunderground v.1.15,2013-03-26 03:20:00,
2013-03-25 23:25:00,26.7,22.5,29.90,SW,236,4.0,6.0,84,0.00,,,0.02,Wunderground v.1.15,2013-03-26 03:25:00,
2013-03-25 23:30:00,26.5,22.9,29.90,WSW,246,4.0,21.0,86,0.00,,,0.02,Wunderground v.1.15,2013-03-26 03:30:00,
2013-03-25 23:35:00,26.1,23.0,29.90,WSW,246,5.0,21.0,88,0.00,,,0.02,Wunderground v.1.15,2013-03-26 03:35:00,
2013-03-25 23:40:00,26.0,22.9,29.90,SW,233,4.0,21.0,88,0.00,,,0.02,Wunderground v.1.15,2013-03-26 03:40:00,
2013-03-25 23:45:00,25.8,23.0,29.90,WSW,253,4.0,21.0,89,0.00,,,0.02,Wunderground v.1.15,2013-03-26 03:45:00,
2013-03-25 23:50:00,25.8,23.3,29.90,WNW,300,4.0,4.0,90,0.00,,,0.02,Wunderground v.1.15,2013-03-26 03:50:00,
2013-03-25 23:55:00,25.6,22.8,29.90,West,259,4.0,21.0,89,0.00,,,0.02,Wunderground v.1.15,2013-03-26 03:55:00,